Voltar ao catálogo

O3B FM15

AtivoComunicaçõesMEO
NORAD 43231·PAYLOAD·🇱🇺 Luxembourg

Lançado Mar 9, 2018 de Guiana Space Centre

Loading…

Próximas Passagens (próximas 24 horas)

TLE

AtualizadoSource: CelesTrak SupGP

Época: Sep 13, 2026, 18:00 UTC

1 43231C 18024A   26256.75000000  .00000000  00000+0  00000+0 0  2565
2 43231   0.0562 356.6200 0002577 177.0814  16.7283  5.00115951    14

Acompanhe O3B FM15 em tempo real com AllMySat

Download on the App Store